www.pogodaiklimat.ru

Погода и климат >> Архив погоды >> Россия >> Якутия >> Усть-Мая


ПОГОДА в Усть-Мае

АРХИВ ПОГОДЫ в Усть-Мае

Время (UTC), дата Ветер
(напр.,м/с)
 
Видим.   Явления Облачность Т
(С)
Тd
(С)
f
(%)
Тe
(С)
Тes
(С)
Комфортность P
(гПа)
Po
(гПа)
Тmin
(С)
Tmax
(С)
R
(мм)
R24
(мм)
S
(см)
09 19.06 ЮЗ 3 50 км 3/1 1000 м
[Cu hum Ci fib]
+27.4 +8.1 30 +27 +29 жарко 1005.7 986.6 +27.8
12 19.06 ЮЗ 1 50 км 3/0
[Ci fib]
+22.3 +10.1 46 +24 +24 комфорт 1006.3 986.9
15 19.06 Ю 1 50 км 1/0
[Ac trans]
+14.1 +8.6 69 +15 +15 1006.9 986.8
18 19.06 ЮЗ 2 50 км 3/0
[Ac trans Ci fib]
+11.1 +9.3 89 +10 +10 1007.2 987.0
21 19.06 Ю 1 50 км 8/5 1000 м
[Sc Ac trans Ci fib]
+13.3 +9.4 77 +14 +15 1008.2 988.1 +10.0
00 20.06 Ю 3 50 км 9/5 1000 м
[Cu med, cong Ci fib]
+19.3 +12.4 64 +21 +24 комфорт 1007.9 988.2
03 20.06 СЗ 2 50 км 10/5 1000 м
[Cb cap Cs]
+25.5 +12.0 43 +27 +33 жарко 1006.0 986.8
06 20.06 СЗ 3 50 км 10/4 1000 м
[Cb cap Cs]
+23.6 +12.3 49 +25 +29 комфорт 1005.1 985.7
09 20.06 С 1 50 км в посл. час ливневой дождь 10/4 600 м
[Cb cap Ac trans]
+21.3 +14.4 65 +24 +25 комфорт 1004.7 985.2 +25.5 0.0
12 20.06 ЮЗ 1 50 км в посл. час ливневой дождь 10/3 1000 м
[Cb cap Ac trans Ci fib]
+18.0 +17.0 94 +19 +19 1004.3 984.6
15 20.06 ЮЗ 2 50 км 10/3 1000 м
[Sc Ac As]
+16.5 +15.8 96 +17 +17 1002.7 983.0
18 20.06 ЮЗ 4 50 км в посл. час ливневой дождь 10/3 1000 м
[Cb cap Ac trans]
+16.2 +14.8 91 +15 +15 1000.2 980.5
21 20.06 З 2 50 км в посл. час ливневой дождь 8/6 1000 м
[Cb cap Ac trans Ci fib]
+16.4 +15.4 94 +16 +17 998.8 979.1 +15.5 2
00 21.06 СЗ 5-11
{11}
50 км {ливн. осадки} 8/5 600 м
[Cb cap Ci fib]
+21.2 +14.6 66 +24 +26 комфорт 998.5 979.1
03 21.06 С 4
{12}
50 км 9/6 600 м
[Cb cap Ci fib]
+21.3 +10.4 50 +23 +26 комфорт 999.9 980.5
06 21.06 С 6-11
{12}
50 км 4/4 1000 м
[Cu hum]
+21.8 +10.4 48 +24 +26 комфорт 1001.7 982.3
09 21.06 С 4
{11}
50 км 3/1 1000 м
[Cu hum Ci fib]
+22.3 +8.8 42 +24 +25 комфорт 1002.5 983.1 +22.9
12 21.06 СЗ 2 50 км 3/0
[Ci fib]
+17.8 +10.6 63 +18 +18 1003.6 983.8
15 21.06 ЮЗ 1 50 км 3/0
[Ac trans]
+10.2 +7.9 86 +10 +10 1004.5 984.3
18 21.06 ЮЗ 1 50 км 3/0
[Ac trans]
+7.3 +6.4 94 +6 +6 1005.4 984.9
21 21.06 Ю 2 50 км 6/0
[Ci fib]
+13.2 +11.5 89 +12 +15 1005.4 985.4 +7.0
00 22.06 ЮВ 1 50 км 8/0
[Ci fib]
+20.1 +12.9 63 +23 +33 комфорт 1004.4 984.8
03 22.06 ЮВ 2 50 км 8/1
[Sc Ci fib]
+24.8 +9.8 39 +26 +36 жарко 1002.8 983.5
06 22.06 Ю 1 50 км 6/0
[Cs]
+26.6 +7.9 31 +27 +37 жарко 1001.2 982.1
09 22.06 В 2 50 км 9/0
[Ci fib]
+25.9 +10.7 38 +27 +29 жарко 1000.7 981.6 +28.0
12 22.06 ЮЗ 1 50 км 8/4 1000 м
[Sc Ci fib]
+18.5 +10.8 61 +20 +20 1001.7 982.0
15 22.06 штиль 0 50 км 5/5 1000 м
[Sc]
+14.8 +12.2 84 +15 +15 1002.7 982.8
18 22.06 С 1 50 км 5/1 1000 м
[Sc Ci fib]
+10.5 +9.1 91 +10 +10 1003.7 983.5
21 22.06 СВ 1 50 км 4/0
[Ci fib]
+15.6 +14.0 90 +16 +19 1004.0 984.2 +10.0
00 23.06 СВ 1 50 км 8/0
[Ci fib]
+21.9 +14.3 62 +25 +35 комфорт 1004.4 984.9
03 23.06 ЮВ 3 50 км 8/0
[Ci sp]
+25.1 +12.9 47 +27 +37 жарко 1004.4 985.2
06 23.06 ЮВ 4 50 км 6/0
[Ci fib]
+25.8 +10.8 39 +27 +33 жарко 1004.1 984.8
09 23.06 ЮВ 5
{10}
50 км 3/0
[Ci fib]
+25.2 +11.0 41 +26 +28 жарко 1004.0 984.8 +26.2
12 23.06 ЮВ 7-12
{12}
50 км 3/0
[Ac trans Ci fib]
+21.2 +9.1 46 +22 +22 комфорт 1005.8 986.2
15 23.06 Ю 4
{14}
50 км 3/0
[Ac trans Ci fib]
+16.4 +8.7 60 +16 +16 1007.4 987.5
18 23.06 ЮВ 4 50 км 1/0
[Ac trans]
+13.6 +7.9 68 +12 +12 1007.8 987.7
21 23.06 ЮВ 5 50 км 4/0
[Ci fib]
+13.9 +8.2 68 +12 +13 1007.8 987.8 +12.9
00 24.06 Ю 6 50 км 10/0
[Cs]
+17.9 +8.2 53 +17 +20 1007.9 987.1
03 24.06 ЮВ 5
{10}
50 км 10/0
[As trans Cs]
+20.2 +10.1 52 +22 +26 комфорт 1005.4 985.8
06 24.06 ЮВ 5
{10}
50 км 10/3 1000 м
[Cb cap Ac trans Cs]
+21.4 +10.6 50 +23 +25 комфорт 1004.5 985.0
09 24.06 ЮВ 2 50 км 10/5 600 м
[Cb cap Ac trans Cs]
+20.7 +11.3 55 +23 +24 комфорт 1003.9 984.4 +21.8
12 24.06 штиль 0 50 км {ливн. осадки} 10/3 1000 м
[Cb cap Ac As Cs]
+18.8 +10.4 58 +19 +19 1003.6 984.0
15 24.06 С 1 50 км 10/3 1000 м
[Cb cap Ac trans Cs]
+12.7 +9.8 83 +13 +13 1003.9 983.8
18 24.06 С 1 50 км 10/5 1000 м
[Cb cap Ac trans Cs]
+11.0 +9.8 92 +11 +11 1004.0 983.8
21 24.06 В 1 50 км 10/3 1000 м
[Sc Ac trans Ci fib]
+14.3 +13.5 95 +15 +16 1003.8 983.9 +10.8 0.0
00 25.06 В 1 50 км 8/4 1000 м
[Cb cap Ac trans Ci fib]
+20.4 +13.6 65 +24 +28 комфорт 1004.1 984.6
03 25.06 ЮВ 2 50 км 8/4 1000 м
[Cu med, cong Cs]
+23.7 +14.4 56 +26 +34 жарко 1003.3 984.0
06 25.06 В 1 50 км 9/5 600 м
[Cb cap Ci fib]
+26.1 +14.2 48 +28 +33 жарко 1002.4 983.2
09 25.06 С 3
{10}
50 км 4/4 1000 м
[Cu med, cong]
+25.0 +13.0 47 +27 +28 жарко 1003.1 983.9 +26.7
12 25.06 С 2 50 км 3/0
[Ac trans]
+19.8 +8.9 49 +21 +21 комфорт 1004.7 985.1
15 25.06 СЗ 3 50 км 1/0
[Ci fib]
+14.3 +8.7 69 +13 +13 1005.6 985.5
18 25.06 СЗ 1 50 км 3/0
[Ac trans]
+8.4 +8.2 99 +7 +7 1006.5 986.0
21 25.06 штиль 0 50 км 1/0
[Ci fib]
+14.3 +9.7 74 +14 +17 1007.5 987.5 +8.2
00 26.06 СВ 2 50 км 1/0
[Ci fib]
+20.0 +13.3 65 +23 +32 комфорт 1007.9 988.3
03 26.06 В 2 50 км 3/3 1000 м
[Cu med, cong]
+24.0 +13.3 51 +26 +36 жарко 1007.2 987.8
06 26.06 Ю 2 50 км 5/4 1000 м
[Cu med, cong Ac cuf]
+24.8 +13.3 49 +27 +32 жарко 1006.9 987.6

 

Местоположение метеостанции Усть-Мая (Якутия, Россия): широта 60.35 долгота 134.40 высота над уровнем моря 170 м.

В архиве по умолчанию представлена погода в Усть-Мае за последнюю неделю. Архивные данные за месяц целиком и за предыдущие месяцы, начиная с января 2011 года, Вы можете получить, выбрав интересующий диапазон дат из раскрывающегося списка и нажав кнопку "Ввод!".

Внимание! Время в таблицах - всемирное. Для получения местного времени необходимо прибавить поправку, которая в Усть-Мае равна 9 ч.

Смотрите также архив погоды в соседних городах и на ближайших метеорологических станциях:

Погода в Усть-Миле (Якутия, Россия) (112 км)
Погода в Усть-Юдоме (Якутия, Россия) (136 км)
Погода в Амге (Якутия, Россия) (149 км)
Погода в Охотском Перевозе (Якутия, Россия) (179 км)
Погода в Югоренке (Якутия, Россия) (189 км)
Погода в Чурапче (Якутия, Россия) (210 км)
Погода в Ытык-Кюёле (Якутия, Россия) (230 км)
Погода в Тегюльте (Якутия, Россия) (242 км)
Погода в Крест-Хальджае (Якутия, Россия) (275 км)
Погода в Учуре (Якутия, Россия) (280 км)

Пояснения к столбцам:

Ветер - указаны скорость ветра в м/с - средняя за 10 мин, порывы в срок и между сроками (в фигурных скобках) и направление, откуда дует ветер: С - северный, СВ - северо-восточный, В - восточный, ЮВ - юго-восточный, Ю - южный, ЮЗ - юго-западный, З - западный, СЗ - северо-западный.
Видимость - горизонтальная дальность видимости в метрах или километрах. При видимости от 1 до 10 км при отсутствии осадков обычно наблюдается дымка, при ухудшении видимости до 1 км и менее - туман. В сухую погоду видимость может ухудшаться дымом, пылью или мглою.
Явления - указаны атмосферные явления, наблюдавшиеся в срок или в последний час перед сроком; фигурными скобками обозначены явления, наблюдавшиеся между сроками (за 1-3 часа до срока); квадратными скобками обозначены град или гололедные отложения с указанием их диаметра в мм.
Облачность - указаны через наклонную черту общая и нижняя облачность в баллах и высота нижней границы облаков в метрах; квадратными скобками обозначены формы облаков: Ci - перистые, Cs - перисто-слоистые, Cc - перисто-кучевые, Ac - высококучевые, As - высокослоистые, Sc - слоисто-кучевые, Ns - слоисто-дождевые, Cu - кучевые, Cb - кучево-дождевые. Подробнее классификацию облаков см. в Атласе облаков (PDF).
T - Температура воздуха - температура, измеренная на высоте 2 м над землей.
Td - Температура точки росы - температура, при понижении до которой содержащийся в воздухе водяной пар достигнет насыщения.
f - Относительная влажность воздуха - влажноcть воздуха, измеренная на высоте 2 м над землей.
Te - Эффективная температура - температура, которую ощущает одетый по сезону человек в тени. Характеристика душности погоды. При расчете учитывается влияние влажности воздуха и скорости ветра на теплоощущения человека.
Tes - Эффективная температура на солнце - температура, которую ощущает человек, с поправкой на солнечный нагрев. Характеристика знойности погоды. Зависит от высоты солнца над горизонтом, облачности и скорости ветра. Ночью, в пасмурную погоду, а также при ветре 12 м/с и более поправка равна нулю.
P - Атмосферное давление - приведенное к уровню моря атмосферное давление.
Po - Атмосферное давление - измеренное на уровне метеостанции атмосферное давление.
Tmin - Минимальная температура - минимум температуры воздуха на высоте 2 м над землей.
Tmax - Максимальная температура - максимум температуры воздуха на высоте 2 м над землей.
R - Количество осадков - Количество выпавших осадков за период времени, мм. При наведении курсора мыши на число - период времени, за который выпало указанное количество осадков.
R24 - Количество осадков - Количество выпавших осадков за 24 часа, мм.
S - Снежный покров - Высота снежного покрова, см. При наведении курсора мыши на число - состояние снежного покрова и степень покрытия местности в баллах.